Lapse_Rate
-1.5 -1.6 -1.0 4.7 3.9 2.2 2.0 1.4 2.0 2.2 2.5 2.3 2.4 1.9 2.5 2.5 1.3 1.2 -0.3 0.3 0.5 -0.1
-1.6 -1.2 -2.3 -1.2 5.3 3.9 2.8 1.3 -0.1 1.0 1.1 1.5 1.7 1.4 1.3 1.5 1.2 1.0 -1.3 -1.1 -1.1 -1.0
-0.1 -1.1 -0.4 -1.4 3.3 3.6 2.4 0.7 2.2 0.8 1.0 1.3 1.7 1.4 1.6 0.0 -0.5 0.0 -1.4 -1.6 -1.3 -1.7
0.6 -0.4 -0.0 -1.5 -0.3 2.9 1.9 1.5 2.9 2.9 1.9 1.2 1.0 1.2 0.9 0.3 -0.3 0.1 -0.8 -1.3 -0.6 -1.7
1.3 0.8 0.1 -0.1 0.2 0.6 2.5 1.9 2.4 3.0 3.0 2.5 1.2 0.8 0.7 0.5 0.8 0.0 -0.9 -1.0 -1.0 -0.7
0.9 1.1 1.0 0.5 1.4 0.5 2.0 2.1 1.3 1.9 1.7 2.1 1.5 1.0 0.4 0.7 0.3 0.4 0.3 -0.8 -0.0 -0.6
0.7 1.6 1.5 1.9 2.2 2.1 1.1 2.6 2.1 2.0 0.9 1.2 1.3 0.2 0.4 -0.1 -0.7 -0.3 -0.2 -0.3 -0.6 0.4
1.0 1.4 1.6 1.9 2.0 3.4 2.6 1.7 1.7 1.8 2.0 1.3 1.1 1.3 0.6 0.5 0.2 -1.4 -0.6 0.3 0.3 0.9
0.6 1.1 1.4 1.8 2.3 3.0 3.8 3.3 2.4 2.0 1.5 1.6 2.1 3.3 2.6 1.3 0.6 0.2 -0.1 0.3 1.2 2.3
0.8 1.1 1.6 1.6 2.2 2.6 3.9 4.4 4.2 3.4 2.6 2.3 2.6 5.3 4.6 2.8 2.9 1.8 1.9 1.6 2.2 3.8
0.8 1.0 2.0 1.7 1.8 2.5 3.4 3.9 4.2 4.8 3.9 3.4 3.3 4.4 4.2 3.8 2.2 2.1 2.0 2.7 2.6 3.1
1.4 1.0 2.2 2.2 2.0 2.0 3.3 3.6 3.6 4.1 5.0 4.7 5.0 5.6 4.7 3.4 3.1 3.5 3.4 3.1 2.9 3.4
1.9 1.5 2.7 2.5 2.6 2.6 3.1 3.9 3.4 3.3 4.2 5.5 4.9 6.0 5.5 4.1 4.0 4.4 4.4 3.8 3.7 4.5
1.9 2.5 2.9 2.9 2.8 3.0 2.9 3.7 3.7 3.6 3.8 4.1 5.4 5.3 5.6 5.0 4.1 4.0 4.4 4.8 4.6 4.8
Wind_Speed
17 9 9 9 9 13 12 12 12 13 13 12 12 11 11 8 6 7 6 8 5 3
16 16 12 14 9 9 11 9 13 12 13 13 12 13 12 9 10 9 5 6 6 4
15 16 13 11 8 8 7 8 11 14 14 14 14 13 13 9 9 10 5 5 7 4
15 16 15 12 11 2 7 9 12 13 15 15 15 14 12 11 11 13 10 7 9 7
16 17 16 14 12 7 4 4 9 8 11 13 15 15 16 15 12 13 12 11 11 10
18 17 16 16 14 9 2 6 6 6 7 6 10 13 14 15 14 14 14 14 11 12
19 17 15 14 14 10 6 5 9 8 8 7 5 6 8 12 14 11 11 9 13 11
18 17 16 16 15 12 8 5 4 9 9 9 8 5 8 8 12 14 12 9 10 9
18 18 17 15 14 13 11 7 4 5 10 10 6 16 17 12 9 11 15 13 11 11
17 18 18 16 14 14 11 9 5 4 8 9 10 20 19 19 7 9 10 14 14 9
17 17 17 16 15 14 11 11 7 4 4 8 9 23 23 20 9 8 9 10 13 12
16 16 17 17 16 13 11 11 9 6 4 6 9 22 25 18 11 10 10 8 10 12
14 14 15 15 14 12 9 10 9 11 10 14 9 18 21 15 9 10 7 7 10 19
14 13 13 13 10 12 11 10 12 12 11 11 7 10 18 18 8 8 7 7 7 8
Wind_Direction
340 331 324 262 201 178 181 181 175 175 173 171 163 159 161 166 151 147 143 140 134 114
341 337 335 323 222 200 185 178 170 171 167 166 164 162 162 164 157 154 139 140 140 130
338 338 323 340 284 179 181 158 187 172 169 166 165 161 163 156 151 147 143 142 132 115
344 346 335 354 328 259 163 167 183 190 178 170 167 166 160 159 157 154 149 145 140 124
344 347 349 349 333 343 166 147 162 175 180 182 172 167 163 160 161 154 152 151 138 138
347 350 349 347 344 341 90 145 119 134 130 164 175 171 170 164 163 160 161 149 150 146
347 342 346 344 345 355 350 166 134 124 121 123 119 131 150 152 143 142 142 144 139 147
344 341 348 356 353 356 6 13 116 132 124 114 115 126 128 137 143 133 123 124 125 140
348 345 348 351 357 3 1 18 57 133 138 132 129 142 138 127 134 132 133 132 123 132
349 347 348 348 359 6 356 25 19 88 124 138 143 155 140 131 125 134 142 135 134 144
349 346 346 350 357 0 7 15 15 33 97 133 148 148 147 135 128 133 134 146 140 145
344 342 348 351 352 353 4 16 13 24 83 106 131 144 140 129 130 136 141 145 142 147
340 340 348 345 352 352 358 16 22 33 40 81 98 125 125 122 128 132 130 138 144 145
343 342 346 345 355 360 4 18 26 31 33 36 64 102 113 116 119 126 139 149 139 151